Home > Weather > Maastricht > Past weeks

Flag for Netherlands Weather for the Past 2 Weeks in Maastricht, Netherlands

Now
41 °F

Broken clouds.


Feels Like: 35 °F
Forecast: 36 / 44 °F
Wind: 9 mph from Southwest

Location: Maastricht Airport Zuid Limburg

Current Time: Feb 11, 2016 at 11:59:49 AM

Latest Report: Feb 11, 2016 at 11:25 AM


Visibility: N/A

Pressure: 29.68 "Hg

Humidity: 81%

Dew point: 36 °F

Location of MaastrichtLocation

Historic Weather in Maastricht — Graph

°F

Maastricht Temperature Yesterday

Maximum temperature yesterday: 41 °F (at 12:25 PM)
Minimum temperature yesterday: 37 °F (at 12:25 AM)
Average temperature yesterday: 39 °F

High & Low Weather Summary for the Past Weeks

 TemperatureHumidityPressure
High54 °F (Jan 31, 10:55 PM)100% (Jan 28, 1:25 AM)30.33 "Hg (Jan 28, 1:25 AM)
Low36 °F (Jan 28, 8:55 PM)57% (Jan 28, 2:25 PM)28.82 "Hg (Feb 9, 2:55 PM)
Average45 °F84%29.85 "Hg
* Reported Jan 27 10:25 AM — Feb 11 10:55 AM, Maastricht, Weather by CustomWeather, © 2016

Note: Actual official high and low records may vary slightly from our data, if they occured in-between our weather recording intervals... More about our weather records

Advertising

Maastricht Weather History for the Previous 24 Hours

 ConditionsComfort  
Time TempWeatherWind HumidityBarometerVisibility
10:55 AM
Thu, Feb 11
41 °FScattered clouds.12 mph81%29.68 "HgN/A
10:25 AM39 °FScattered clouds.13 mph87%29.68 "HgN/A
9:55 AM39 °FScattered clouds.13 mph87%29.68 "Hg6 mi
9:25 AM37 °FPassing clouds.10 mph93%29.68 "Hg4 mi
8:55 AM37 °FOvercast.10 mph93%29.68 "Hg4 mi
8:25 AM37 °FFog.12 mph93%29.65 "Hg3 mi
7:55 AM36 °FFog.10 mph100%29.65 "Hg3 mi
7:25 AM37 °FFog.13 mph93%29.65 "Hg3 mi
6:55 AM37 °FPartly cloudy.12 mph93%29.65 "Hg4 mi
6:25 AM37 °FPassing clouds.13 mph93%29.65 "Hg4 mi
5:55 AM37 °FPassing clouds.13 mph93%29.65 "Hg4 mi
5:25 AM39 °FMostly cloudy.12 mph93%29.65 "Hg4 mi
4:55 AM37 °FPartly cloudy.12 mph93%29.65 "Hg4 mi
4:25 AM37 °FPartly cloudy.10 mph93%29.62 "Hg4 mi
3:55 AM37 °FClear.12 mph100%29.62 "Hg4 mi
2:55 AM39 °FDrizzle. Overcast.8 mph93%29.62 "Hg3 mi
2:25 AM37 °FPassing clouds.10 mph93%29.62 "Hg5 mi
1:55 AM37 °FClear.9 mph100%29.62 "Hg5 mi
12:55 AM37 °FClear.9 mph100%29.59 "Hg4 mi
12:25 AM39 °FMostly cloudy.8 mph93%29.59 "Hg5 mi
11:55 PM
Wed, Feb 10
39 °FPassing clouds.6 mph93%29.59 "Hg5 mi
11:25 PM39 °FPassing clouds.10 mph93%29.56 "Hg6 mi
10:55 PM39 °FPassing clouds.9 mph93%29.56 "Hg6 mi
10:25 PM39 °FPartly cloudy.7 mph93%29.56 "Hg4 mi
9:55 PM39 °FMostly cloudy.8 mph93%29.56 "HgN/A
9:25 PM39 °FPassing clouds.7 mph93%29.53 "HgN/A
8:55 PM39 °FMostly cloudy.6 mph93%29.53 "HgN/A
8:25 PM39 °FMostly cloudy.8 mph93%29.53 "HgN/A
7:55 PM39 °FMostly cloudy.7 mph93%29.50 "HgN/A
7:25 PM39 °FOvercast.7 mph93%29.50 "HgN/A
6:55 PM39 °FRain. Partly cloudy.8 mph93%29.50 "Hg6 mi
6:25 PM39 °FLight rain. Passing clouds.9 mph93%29.47 "HgN/A
5:55 PM41 °FLight rain. Mostly cloudy.12 mph87%29.45 "HgN/A
5:25 PM41 °FClear.14 mph87%29.42 "HgN/A
4:55 PM41 °FPassing clouds.15 mph87%29.42 "HgN/A
4:25 PM41 °FBroken clouds.13 mph87%29.42 "HgN/A
3:55 PM41 °FMore clouds than sun.12 mph93%29.42 "HgN/A
3:25 PM39 °FMostly cloudy.10 mph93%29.39 "HgN/A
2:55 PM39 °FLight rain. More clouds than sun.13 mph93%29.39 "HgN/A
2:25 PM37 °FSprinkles. Partly sunny.9 mph93%29.39 "HgN/A
1:55 PM37 °FSprinkles. Broken clouds.9 mph93%29.39 "Hg6 mi
1:25 PM41 °FRain. Mostly cloudy.13 mph93%29.36 "Hg4 mi
12:55 PM41 °FDrizzle. Cloudy.16 mph87%29.36 "HgN/A
12:25 PM41 °FSprinkles. Mostly cloudy.13 mph87%29.36 "HgN/A
11:55 AM39 °FBroken clouds.13 mph93%29.36 "HgN/A
11:25 AM39 °FDrizzle. Cloudy.13 mph93%29.36 "HgN/A
Weather by CustomWeather, © 2016

See weather overviewHow to use our weather pages